Location: Memmingen
(47.9830°N, 10.1733°E)
Time: 22:36:27
(UTC+02:00)

ISS - Visible Passes

Search period start: 26 July 2017 00:00
Search period end: 05 August 2017 00:00
Orbit: 400 x 408 km, 51.6° (Epoch: 27 July)

Date Brightness Start Highest point End Pass type
(mag) Time Alt. Az. Time Alt. Az. Time Alt. Az.
26 Jul -2.6 00:51:56 10° WNW 00:55:04 41° N 00:56:42 23° ENE visible
26 Jul -1.5 02:28:31 10° WNW 02:29:15 16° WNW 02:29:15 16° WNW visible
26 Jul -3.9 22:22:42 10° WSW 22:25:57 90° SSE 22:29:13 10° ENE visible
26 Jul -2.6 23:59:31 10° WNW 00:02:39 42° N 00:05:20 13° ENE visible
27 Jul -2.1 01:36:12 10° WNW 01:37:55 27° NW 01:37:55 27° NW visible
27 Jul -2.8 23:07:04 10° W 23:10:13 47° N 23:13:24 10° ENE visible
28 Jul -2.9 00:43:53 10° WNW 00:46:58 47° N 00:46:58 47° N visible
28 Jul -3.2 22:14:36 10° W 22:17:49 58° NNW 22:21:02 10° ENE visible
28 Jul -2.6 23:51:29 10° WNW 23:54:37 42° N 23:56:08 24° ENE visible
29 Jul -1.3 01:28:02 10° WNW 01:28:45 15° WNW 01:28:45 15° WNW visible
29 Jul -2.6 22:59:03 10° WNW 23:02:10 41° N 23:05:17 10° ENE visible
30 Jul -2.6 00:35:41 10° WNW 00:37:57 40° NW 00:37:57 40° NW visible
30 Jul -2.7 22:06:33 10° W 22:09:42 44° N 22:12:51 10° ENE visible
30 Jul -3.1 23:43:19 10° WNW 23:46:31 51° NNE 23:47:12 42° NE visible
31 Jul -2.8 22:50:55 10° WNW 22:54:04 43° N 22:56:29 15° ENE visible
01 Aug -2.1 00:27:26 10° WNW 00:29:05 27° WNW 00:29:05 27° WNW visible
01 Aug -2.6 21:58:27 10° WNW 22:01:34 41° N 22:04:42 10° ENE visible
01 Aug -3.8 23:35:04 10° WNW 23:38:19 74° NNE 23:38:22 74° NNE visible
02 Aug -3.3 22:42:40 10° WNW 22:45:52 55° NNE 22:47:40 23° E visible
03 Aug -1.5 00:19:13 10° WNW 00:20:18 18° W 00:20:18 18° W visible
03 Aug -2.9 21:50:14 10° WNW 21:53:24 45° N 21:56:32 10° E visible
03 Aug -3.6 23:26:44 10° WNW 23:29:36 58° WSW 23:29:36 58° WSW visible
04 Aug -3.9 22:34:18 10° WNW 22:37:34 83° NNE 22:38:56 32° ESE visible
